Regional Weather Roundup
Issued by NWS

Home | Current Version | Previous Version | Graphics & Text | Print | Product List | Glossary Off
Versions: 1 2 3 4 5 6 7 8 9 10 11 12 13 14 15 16 17 18 19 20 21 22 23 24 25 26 27 28 29 30 31 32 33 34 35 36 37 38 39 40 41 42 43 44 45 46 47 48 49 50

000
ASUS43 KDTX 261710
RWRMI
MICHIGAN HOURLY REGIONAL WEATHER ROUNDUP
NATIONAL WEATHER SERVICE DETROIT/PONTIAC MI
100 PM EDT WED APR 26 2017

NOTE: "FAIR" INDICATES FEW OR NO CLOUDS BELOW 12,000 FEET WITH NO
SIGNIFICANT WEATHER AND/OR OBSTRUCTION TO VISIBILITY.

MIZ047>049-052>055-059>063-066>070-074>076-081>083-261800-
SOUTHEAST LOWER MICHIGAN

CITY           SKY/WX    TMP DP  RH WIND       PRES   REMARKS
ADRIAN         SUNNY     75  58  55 S17       29.58F
ALMA           SUNNY     74  59  59 SE16G23   29.52F
ANN ARBOR      SUNNY     73  61  65 E15       29.59F
BAD AXE        CLOUDY    68  57  67 SE12G23   29.62F
CARO           PTSUNNY   72  58  60 SE17G24   29.58F
DETROIT CITY   CLOUDY    70  58  65 S13       29.65F
DETROIT        PTSUNNY   71  58  63 SE16G25   29.63F
FLINT          SUNNY     73  57  57 S21G32    29.56F
GROSSE ILE     PTSUNNY   68  58  70 SE10G17   29.63F
HILLSDALE      SUNNY     73  55  53 SE10G25   29.57S
HOWELL         SUNNY     74  55  52 SE17      29.56F

CITY           SKY/WX    TMP DP  RH WIND       PRES   REMARKS
JACKSON        SUNNY     76  57  51 S22G30    29.55F
LAMBERTVILLE   SUNNY     76  58  53 S15       29.61F
LANSING        SUNNY     75  56  51 SE21G31   29.53F
LAPEER         FAIR      69  56  63 SE13G21   29.61F
MASON          SUNNY     75  58  57 SE20G28   29.54F
MONROE         SUNNY     71  59  65 SE9       29.62F
MT. CLEMENS    PTSUNNY   64  58  82 SE17      29.65F
PONTIAC        PTSUNNY   71  57  61 SE16G23   29.60F
PORT HOPE        N/A     62  54  74 SE20      29.61F
PORT HURON     MOSUNNY   70  55  60 S17       29.66F
TRI CITIES     SUNNY     74  59  59 SE21G28   29.55F
MIDLAND        FAIR      74  56  53 SE13G22   29.54F
TROY           CLOUDY    73  56  54 SE12      29.64F
SAGINAW HB     SUNNY     73  54  49 SE21G29   29.55F
$$
MIZ043>046-050>051-056>058-064>065-071>073-077>080-261800-
SOUTHWEST LOWER MICHIGAN

CITY           SKY/WX    TMP DP  RH WIND       PRES   REMARKS
BATTLE CREEK   MOSUNNY   75  57  53 SE21G33   29.52F
BENTON HARBOR  SUNNY     78  58  49 S14G26    29.45F
BIG RAPIDS     PTSUNNY   73  54  51 SE21G28   29.47F
COLDWATER      SUNNY     75  57  54 SE15G28   29.53F
FREMONT        CLOUDY    75  52  44 SE14G23   29.45F
HOLLAND        MOSUNNY   77  58  51 S18G26    29.45F
GRAND RAPIDS   PTSUNNY   76  57  51 SE20G28   29.48F
IONIA          FAIR      75  55  49 SE20G28   29.49F
KALAMAZOO      MOSUNNY   77  56  48 SE16G25   29.49F
LUDINGTON      CLOUDY    72  57  59 S10       29.41F
MARSHALL       MOSUNNY   76  57  50 SE15G25   29.52F
MOUNT PLEASANT SUNNY     73  57  57 SE17G23   29.52F
MUSKEGON       PTSUNNY   76  56  49 S18       29.44F
SOUTH HAVEN    SUNNY     77  58  52 S16G23    29.45F
$$
MIZ016>042-261800-
NORTHERN LOWER MICHIGAN

CITY           SKY/WX    TMP DP  RH WIND       PRES   REMARKS
ALPENA         CLOUDY    60  51  72 SE12G22   29.59F
BEAVER ISLAND  CLOUDY    52  46  80 E10       29.48F
BELLAIRE       PTSUNNY   74  53  48 SE18G32   29.46F
CADILLAC       MOSUNNY   73  56  54 SE17G25   29.46F
CHARLEVOIX     CLOUDY    73  55  53 SE12G20   29.49F
FRANKFORT      CLOUDY    73  54  49 S12       29.41F
GAYLORD        CLOUDY    73  54  51 S17G23    29.51F
GRAYLING       MOSUNNY   73  56  55 SE14G22   29.52F
HARBOR SPRINGS CLOUDY    73  56  56 SE8G18    29.49F
HOUGHTON LAKE  MOSUNNY   71  55  56 SE18G29   29.53F
MANISTEE       CLOUDY    75  56  51 S9G18     29.40F
OSCODA         CLOUDY    63  52  68 SE12G17   29.59F
PELLSTON       PTSUNNY   73  54  51 SE17G28   29.49F
ROGERS CITY    PTSUNNY   65  55  68 SE14      29.57F
TRAVERSE CITY  CLOUDY    78  55  44 SE18G25   29.41F
$$
MIZ007>008-015-261800-
EASTERN UPPER MICHIGAN

CITY           SKY/WX    TMP DP  RH WIND       PRES   REMARKS
KINROSS        CLOUDY    54  48  80 E23G29    29.55F
MACKINAC ISLAN FOG       41  41 100 E21G31    29.53F VSB 1/4
NEWBERRY       CLOUDY    56  55  97 E13G18    29.50F FOG
S. S. MARIE    CLOUDY    54  50  86 E12G26    29.57F
MUNISING         N/A     61  55  81 SE6       29.43F
$$
MIZ004>006-011>014-085-261800-
CENTRAL UPPER MICHIGAN

CITY           SKY/WX    TMP DP  RH WIND       PRES   REMARKS
MANISTIQUE     CLOUDY    54  51  90 E12G20    29.46F
ESCANABA       CLOUDY    54  50  86 E10       29.43F
MENOMINEE      CLOUDY    53  48  83 E7        29.40F
SAWYER-GWINN   FOG       41  39  93 NE5       29.46F VSB 0
$$
MIZ001>003-009>011-084-261800-
WESTERN UPPER MICHIGAN

CITY           SKY/WX    TMP DP  RH WIND       PRES   REMARKS
IRON MOUNTAIN  CLOUDY    53  50  89 E6        29.37F FOG
HOUGHTON       LGT RAIN  35  32  88 E17G25    29.50F FOG     WCI  25
COPPER HARBOR    N/A     35  34  96 E14G25    29.55F WCI  26
IRONWOOD       LGT SNOW  32  30  93 N6        29.49F FOG     WCI  26
$$

ABBREVIATIONS USED IN REMARKS
   TC - TEMPERATURE IN CELSIUS
  WCI - WIND CHILL INDEX
   HX - HEAT INDEX
  VSB - VISIBILITY





USA.gov is the U.S. government's official web portal to all federal, state and local government web resources and services.